• In Latvia
  • List of Countries
  • For 7 days
  • Water Temperature
  • Satellite Maps
  • Weather Map
  • Weather Widgets
  • user-avatar
    Login

    Hourly Weather Auce

    Today, 20 August, Sunday

    Time Temperature Precipitation Wind Pressure Humidity
    00:00 +16°C° 0 mm 2 mps 753 mmHg 93%
    01:00 +15°C° 0 mm 2 mps 754 mmHg 93%
    02:00 +15°C° 0 mm 2 mps 754 mmHg 93%
    03:00 +14°C° 0 mm 2 mps 754 mmHg 93%
    04:00 +14°C° 0 mm 2 mps 754 mmHg 94%
    05:00 +13°C° 0 mm 2 mps 754 mmHg 94%
    06:00 +14°C° 0 mm 2 mps 754 mmHg 90%
    07:00 +15°C° 0 mm 2 mps 754 mmHg 87%
    08:00 +16°C° 0 mm 2 mps 754 mmHg 83%
    09:00 +17°C° 0 mm 2 mps 755 mmHg 78%
    10:00 +18°C° 0 mm 2 mps 755 mmHg 74%
    11:00 +19°C° 0 mm 3 mps 755 mmHg 69%
    12:00 +19°C° 0.1 mm 3 mps 755 mmHg 69%
    13:00 +19°C° 0.1 mm 3 mps 755 mmHg 69%
    14:00 +19°C° 0.1 mm 3 mps 755 mmHg 69%
    15:00 +19°C° 0.3 mm 3 mps 754 mmHg 73%
    16:00 +18°C° 0.3 mm 3 mps 754 mmHg 78%
    17:00 +18°C° 0.3 mm 2 mps 754 mmHg 82%
    18:00 +17°C° 0.2 mm 2 mps 754 mmHg 85%
    19:00 +16°C° 0.2 mm 2 mps 754 mmHg 89%
    20:00 +15°C° 0.2 mm 2 mps 754 mmHg 92%
    21:00 +15°C° 0.2 mm 2 mps 754 mmHg 93%
    22:00 +15°C° 0.2 mm 2 mps 754 mmHg 95%
    23:00 +14°C° 0.2 mm 2 mps 754 mmHg 96%

    Tomorrow, 21 August, Monday

    Time Temperature Precipitation Wind Pressure Humidity
    00:00 +14°C° 0.1 mm 1 mps 754 mmHg 96%
    01:00 +14°C° 0.1 mm 1 mps 753 mmHg 96%
    02:00 +14°C° 0.1 mm 1 mps 753 mmHg 96%
    03:00 +14°C° 0 mm 1 mps 753 mmHg 96%
    04:00 +13°C° 0 mm 1 mps 753 mmHg 96%
    05:00 +13°C° 0 mm 1 mps 753 mmHg 96%
    06:00 +14°C° 0 mm 1 mps 753 mmHg 93%
    07:00 +15°C° 0 mm 1 mps 753 mmHg 90%
    08:00 +15°C° 0 mm 1 mps 753 mmHg 88%
    09:00 +16°C° 0 mm 1 mps 752 mmHg 81%
    10:00 +18°C° 0 mm 1 mps 752 mmHg 75%
    11:00 +20°C° 0 mm 1 mps 752 mmHg 69%
    12:00 +19°C° 0.3 mm 2 mps 752 mmHg 67%
    13:00 +19°C° 0.3 mm 2 mps 752 mmHg 65%
    14:00 +20°C° 0.3 mm 2 mps 752 mmHg 64%
    15:00 +20°C° 0.5 mm 2 mps 752 mmHg 65%
    16:00 +21°C° 0.5 mm 1 mps 752 mmHg 67%
    17:00 +20°C° 0.5 mm 1 mps 752 mmHg 68%
    18:00 +19°C° 0.3 mm 1 mps 752 mmHg 75%
    19:00 +16°C° 0.3 mm 1 mps 752 mmHg 81%
    20:00 +15°C° 0.3 mm 1 mps 752 mmHg 87%
    21:00 +14°C° 0 mm 1 mps 752 mmHg 89%
    22:00 +14°C° 0 mm 1 mps 752 mmHg 91%
    23:00 +13°C° 0 mm 1 mps 752 mmHg 92%

    Day after tomorrow, 22 August, Tuesday

    Time Temperature Precipitation Wind Pressure Humidity
    00:00 +13°C° 0 mm 1 mps 752 mmHg 93%
    01:00 +12°C° 0 mm 1 mps 752 mmHg 94%
    02:00 +12°C° 0 mm 1 mps 752 mmHg 94%
    03:00 +12°C° 0 mm 1 mps 752 mmHg 94%
    04:00 +11°C° 0 mm 1 mps 752 mmHg 95%
    05:00 +11°C° 0 mm 1 mps 752 mmHg 95%
    06:00 +13°C° 0 mm 1 mps 752 mmHg 92%
    07:00 +14°C° 0 mm 1 mps 752 mmHg 90%
    08:00 +15°C° 0 mm 1 mps 752 mmHg 87%
    09:00 +16°C° 0.1 mm 0 mps 751 mmHg 81%
    10:00 +17°C° 0.1 mm 0 mps 751 mmHg 74%
    11:00 +19°C° 0.1 mm 0 mps 751 mmHg 68%
    12:00 +21°C° 0.5 mm 1 mps 751 mmHg 67%
    13:00 +21°C° 0.5 mm 1 mps 751 mmHg 65%
    14:00 +20°C° 0.5 mm 2 mps 751 mmHg 63%
    15:00 +20°C° 0.8 mm 2 mps 750 mmHg 67%
    16:00 +19°C° 0.8 mm 2 mps 750 mmHg 71%
    17:00 +19°C° 0.8 mm 2 mps 750 mmHg 75%
    18:00 +17°C° 0.2 mm 2 mps 750 mmHg 80%
    19:00 +16°C° 0.2 mm 2 mps 750 mmHg 85%
    20:00 +15°C° 0.2 mm 2 mps 750 mmHg 90%
    21:00 +14°C° 0.2 mm 2 mps 750 mmHg 92%
    22:00 +14°C° 0.2 mm 2 mps 750 mmHg 94%
    23:00 +13°C° 0.2 mm 2 mps 750 mmHg 95%

    23 August, Wednesday

    Time Temperature Precipitation Wind Pressure Humidity
    00:00 +13°C° 0.1 mm 2 mps 750 mmHg 96%
    01:00 +12°C° 0.1 mm 2 mps 750 mmHg 96%
    02:00 +12°C° 0.1 mm 2 mps 750 mmHg 97%
    03:00 +12°C° 0 mm 2 mps 750 mmHg 97%
    04:00 +12°C° 0 mm 2 mps 749 mmHg 97%
    05:00 +11°C° 0 mm 3 mps 749 mmHg 97%
    06:00 +12°C° 0 mm 3 mps 749 mmHg 94%
    07:00 +13°C° 0 mm 3 mps 749 mmHg 91%
    08:00 +14°C° 0 mm 4 mps 749 mmHg 87%
    09:00 +15°C° 0 mm 4 mps 750 mmHg 80%
    10:00 +17°C° 0 mm 4 mps 750 mmHg 73%
    11:00 +18°C° 0 mm 4 mps 750 mmHg 66%
    12:00 +17°C° 0.1 mm 5 mps 750 mmHg 64%
    13:00 +19°C° 0.1 mm 5 mps 750 mmHg 63%
    14:00 +19°C° 0.1 mm 6 mps 750 mmHg 61%
    15:00 +17°C° 0.1 mm 6 mps 750 mmHg 63%
    16:00 +17°C° 0.1 mm 6 mps 750 mmHg 65%
    17:00 +16°C° 0.1 mm 6 mps 750 mmHg 67%
    18:00 +15°C° 0 mm 5 mps 750 mmHg 72%
    19:00 +14°C° 0 mm 5 mps 751 mmHg 78%
    20:00 +12°C° 0 mm 4 mps 751 mmHg 84%
    21:00 +12°C° 0 mm 4 mps 751 mmHg 85%
    22:00 +11°C° 0 mm 4 mps 751 mmHg 86%
    23:00 +10°C° 0 mm 3 mps 751 mmHg 87%

    24 August, Thursday

    Time Temperature Precipitation Wind Pressure Humidity
    00:00 +10°C° 0 mm 3 mps 752 mmHg 87%
    01:00 +10°C° 0 mm 3 mps 752 mmHg 87%
    02:00 +9°C° 0 mm 3 mps 752 mmHg 87%
    03:00 +9°C° 0 mm 3 mps 752 mmHg 88%
    04:00 +9°C° 0 mm 3 mps 752 mmHg 89%
    05:00 +9°C° 0 mm 3 mps 752 mmHg 90%
    06:00 +11°C° 0 mm 3 mps 752 mmHg 85%
    07:00 +12°C° 0 mm 4 mps 752 mmHg 79%
    08:00 +14°C° 0 mm 4 mps 752 mmHg 73%
    09:00 +15°C° 0 mm 4 mps 752 mmHg 68%
    10:00 +17°C° 0 mm 5 mps 752 mmHg 62%
    11:00 +19°C° 0 mm 5 mps 752 mmHg 57%
    12:00 +19°C° 0.1 mm 5 mps 752 mmHg 59%
    13:00 +19°C° 0.1 mm 5 mps 752 mmHg 61%
    14:00 +19°C° 0.1 mm 5 mps 752 mmHg 63%
    15:00 +19°C° 0.1 mm 5 mps 752 mmHg 62%
    16:00 +19°C° 0.1 mm 5 mps 752 mmHg 62%
    17:00 +19°C° 0.1 mm 4 mps 751 mmHg 62%
    18:00 +18°C° 0 mm 4 mps 751 mmHg 64%
    19:00 +17°C° 0 mm 4 mps 750 mmHg 67%
    20:00 +16°C° 0 mm 3 mps 750 mmHg 70%
    21:00 +15°C° 0.1 mm 4 mps 750 mmHg 73%
    22:00 +15°C° 0.1 mm 4 mps 749 mmHg 76%
    23:00 +15°C° 0.1 mm 4 mps 749 mmHg 79%

    25 August, Friday

    Time Temperature Precipitation Wind Pressure Humidity
    00:00 +15°C° 0.2 mm 4 mps 748 mmHg 80%
    01:00 +15°C° 0.2 mm 4 mps 748 mmHg 81%
    02:00 +15°C° 0.2 mm 4 mps 748 mmHg 83%
    03:00 +15°C° 0.1 mm 4 mps 747 mmHg 86%
    04:00 +15°C° 0.1 mm 4 mps 747 mmHg 89%
    05:00 +15°C° 0.1 mm 4 mps 747 mmHg 92%
    06:00 +17°C° 0.3 mm 4 mps 747 mmHg 92%
    07:00 +17°C° 0.3 mm 5 mps 747 mmHg 91%
    08:00 +19°C° 0.3 mm 5 mps 747 mmHg 90%
    09:00 +19°C° 0.1 mm 5 mps 747 mmHg 87%
    10:00 +19°C° 0.1 mm 5 mps 747 mmHg 84%
    11:00 +20°C° 0.1 mm 6 mps 748 mmHg 81%
    12:00 +20°C° 0.1 mm 6 mps 748 mmHg 79%
    13:00 +19°C° 0.1 mm 6 mps 748 mmHg 77%
    14:00 +19°C° 0.1 mm 6 mps 749 mmHg 75%
    15:00 +19°C° 0.1 mm 6 mps 749 mmHg 75%
    16:00 +20°C° 0.1 mm 6 mps 749 mmHg 74%
    17:00 +20°C° 0.1 mm 6 mps 749 mmHg 74%
    18:00 +19°C° 0.1 mm 5 mps 750 mmHg 79%
    19:00 +17°C° 0.1 mm 5 mps 750 mmHg 84%
    20:00 +17°C° 0.1 mm 4 mps 750 mmHg 89%
    21:00 +15°C° 0 mm 4 mps 750 mmHg 91%
    22:00 +14°C° 0 mm 3 mps 751 mmHg 94%
    23:00 +14°C° 0 mm 3 mps 751 mmHg 96%
    Show more